[[{"header":{"parameterUnit":"m.s-1","parameterCategory":1,"la1":30.2991,"la2":30.254,"lo1":-89.0895,"lo2":-89.0444,"dy":0.0017,"dx":0.0017,"nx":28,"ny":28,"refTime":"2025-11-06T09:00:00:Z","depth":0,"parameterNumber":2,"parameterNumberName":"U-component_of_WINDS"},"data":[0,0,0,0,0,0,0,0,0,0,0,0,0,0,0,0,0,0,0,0,0,0,0,0,0,0,0,0,0,0,0,0,0,0,0,0,0,0,0,0,0,0,0,0,0,0,0,0,0,0,0,0,0,0,0,0,0,0,-2.5737,-2.5739,0,-2.5856,-2.5857,-2.5858,-2.5885,-2.5885,-2.5884,-2.5883,-2.6001,-2.6004,-2.6008,0,0,0,0,0,0,0,0,0,0,0,0,0,-2.5533,-2.5536,-2.5737,-2.5739,-2.574,-2.5855,-2.5857,-2.5859,-2.5886,-2.5885,-2.5884,-2.5883,-2.5999,-2.6004,-2.6009,0,0,0,0,0,0,0,0,0,0,0,0,0,-2.5633,-2.5537,-2.5737,-2.5768,-2.5772,-2.5855,-2.5857,-2.5859,-2.5886,-2.5885,-2.5883,-2.5882,-2.5998,-2.6003,-2.6009,-2.6069,0,0,-2.6027,-2.6029,0,0,0,0,0,0,0,0,-2.5627,-2.5641,-2.5762,-2.5766,-2.577,-2.5855,-2.5828,-2.5929,-2.5886,-2.5842,-2.5883,-2.5882,-2.5953,-2.5962,-2.5987,-2.6075,-2.608,-2.6027,-2.6031,-2.6034,-2.6035,0,0,0,0,0,0,0,-2.562,-2.5636,-2.5784,-2.5763,-2.5769,-2.5775,-2.5788,-2.5847,-2.5903,-2.5846,-2.5848,-2.5862,-2.5955,-2.5981,-2.599,-2.6082,-2.6027,-2.6032,-2.6036,-2.6038,-2.6225,-2.6227,0,0,0,0,0,0,-2.5608,-2.563,-2.578,-2.5787,-2.5694,-2.5779,-2.5794,-2.5829,-2.5902,-2.5912,-2.5863,-2.5863,-2.5972,-2.5983,-2.5994,-2.6069,-2.6033,-2.6039,-2.6042,-2.6224,-2.6226,-2.6227,0,0,0,0,0,0,-2.5604,-2.5622,-2.5775,-2.5709,-2.5729,-2.5784,-2.5823,-2.5832,-2.5858,-2.5915,-2.5925,-2.588,-2.5971,-2.5986,-2.6051,-2.6074,-2.6042,-2.6047,-2.6222,-2.6225,-2.6227,-2.622,0,0,0,0,0,0,-2.5598,-2.562,-2.5644,-2.571,-2.5733,-2.5831,-2.5825,-2.5835,-2.5868,-2.5869,-2.5934,-2.5943,-2.5972,-2.6042,-2.6057,-2.6081,-2.6051,-2.622,-2.6223,-2.6226,-2.6218,-2.6222,-2.6224,0,0,0,0,0,-2.559,-2.5636,-2.5645,-2.5663,-2.5764,-2.5832,-2.5845,-2.5878,-2.587,-2.5894,-2.5931,-2.5941,-2.6069,-2.6048,-2.6065,-2.6092,-2.6219,-2.6222,-2.6226,-2.6217,-2.6221,-2.6224,0,0,0,0,0,0,-2.5569,-2.5645,-2.5655,-2.5724,-2.5772,-2.5836,-2.5867,-2.5881,-2.5931,-2.593,-2.5968,-2.5982,-2.6044,-2.6075,-2.605,-2.6154,-2.6144,-2.6151,-2.6131,-2.6136,-2.6139,-2.6129,-2.6056,0,0,0,0,0,-2.5573,-2.5623,-2.5686,-2.5741,-2.5764,-2.5812,-2.5843,-2.5864,-2.5915,-2.5934,-2.5976,-2.6023,-2.6075,-2.6107,-2.6157,-2.6224,-2.6238,-2.625,-2.6253,-2.6256,-2.626,-2.6298,-2.6304,-2.6238,-2.6238,-2.6238,0,0,-2.558,-2.5628,-2.5657,-2.5738,-2.5777,-2.5827,-2.5828,-2.5881,-2.5918,-2.5942,-2.6006,-2.6038,-2.6094,-2.616,-2.6191,-2.6187,-2.6282,-2.626,-2.6261,-2.6265,-2.6302,-2.6308,-2.6313,-2.6241,-2.624,-2.624,0,0,-2.5619,-2.5661,-2.5711,-2.5751,-2.5811,-2.5843,-2.5855,-2.5918,-2.5941,-2.6006,-2.6025,-2.607,-2.6157,-2.6196,-2.6228,-2.6284,-2.6294,-2.6299,-2.6314,-2.635,-2.6355,-2.636,-2.6379,-2.6385,-2.6304,-2.6304,-2.6304,0,-2.562,-2.5697,-2.5734,-2.5787,-2.5821,-2.5847,-2.5898,-2.5934,-2.6007,-2.603,-2.6026,-2.6137,-2.6176,-2.6251,-2.6265,-2.629,-2.6304,-2.629,-2.6352,-2.6357,-2.6362,-2.638,-2.6387,-2.6304,-2.6304,-2.6304,-2.6304,0,-2.5695,-2.5748,-2.5781,-2.5853,-2.5892,-2.5943,-2.5987,-2.6021,-2.604,-2.6072,-2.6139,-2.6187,-2.6248,-2.6268,-2.6286,-2.6346,-2.6342,-2.6344,-2.6334,-2.6367,-2.6385,-2.6393,-2.6304,-2.6304,-2.6304,-2.6304,0,0,-2.5721,-2.5814,-2.5826,-2.5859,-2.5928,-2.5969,-2.6022,-2.6083,-2.6111,-2.6162,-2.6206,-2.628,-2.6283,-2.6319,-2.6342,-2.6374,-2.6415,-2.6373,-2.6374,-2.6377,-2.6483,-2.6479,-2.6487,-2.6423,-2.6425,-2.6426,-2.6478,0,-2.5768,-2.5863,-2.5898,-2.5976,-2.6025,-2.6052,-2.6098,-2.6145,-2.6177,-2.6223,-2.6258,-2.631,-2.6311,-2.6332,-2.6365,-2.6402,-2.6436,-2.64,-2.6463,-2.6465,-2.6447,-2.6497,-2.6493,-2.654,-2.6485,-2.6486,-2.6487,0,-2.5833,-2.5886,-2.5969,-2.6033,-2.6055,-2.6095,-2.6154,-2.6199,-2.6253,-2.6274,-2.6315,-2.6337,-2.6392,-2.6381,-2.6457,-2.6432,-2.646,-2.6483,-2.6486,-2.6491,-2.6477,-2.6502,-2.6555,-2.6562,-2.6499,-2.6498,-2.6497,0,-2.5843,-2.5934,-2.5996,-2.6023,-2.61,-2.6128,-2.6161,-2.6214,-2.6249,-2.63,-2.6323,-2.638,-2.6411,-2.6454,-2.6491,-2.6479,-2.6564,-2.6556,-2.6582,-2.6581,-2.6596,-2.6595,-2.6653,-2.6618,-2.6618,-2.6618,-2.6617,0,-2.5889,-2.5939,-2.6001,-2.6038,-2.6095,-2.6136,-2.619,-2.6225,-2.6272,-2.6316,-2.6343,-2.6384,-2.6431,-2.6478,-2.6507,-2.6565,-2.6579,-2.6597,-2.6604,-2.6594,-2.6591,-2.6612,-2.6609,-2.662,-2.6619,-2.6619,-2.6618,0,-2.5908,-2.5952,-2.6021,-2.6089,-2.6107,-2.6145,-2.6203,-2.624,-2.6275,-2.633,-2.6346,-2.6399,-2.6456,-2.6498,-2.657,-2.659,-2.6652,-2.666,-2.6634,-2.6637,-2.6661,-2.6657,-2.6733,-2.6745,-2.6703,-2.6703,-2.6703,0,-2.5934,-2.5973,-2.6046,-2.6078,-2.6111,-2.6163,-2.6199,-2.6241,-2.6277,-2.6343,-2.6372,-2.6431,-2.6481,-2.657,-2.6615,-2.6671,-2.6679,-2.6702,-2.6687,-2.6676,-2.6678,-2.6674,-2.6678,-2.6703,-2.6703,-2.6703,-2.6704,0,-2.5975,-2.5996,-2.6047,-2.6106,-2.6149,-2.6197,-2.6246,-2.6271,-2.6322,-2.6361,-2.642,-2.6458,-2.6534,-2.6592,-2.6653,-2.6687,-2.6703,-2.6708,-2.6717,-2.6706,-2.6689,-2.6698,-2.6638,-2.6706,-2.6705,-2.6705,-2.6705,-2.6705,-2.5998,-2.6033,-2.609,-2.6147,-2.6189,-2.6234,-2.6272,-2.6312,-2.6363,-2.6428,-2.645,-2.6511,-2.6566,-2.665,-2.6684,-2.6732,-2.6731,-2.6744,-2.6747,-2.6749,-2.6748,-2.6683,-2.6743,-2.6743,-2.6743,-2.6743,-2.6743,0,-2.6039,-2.6078,-2.6129,-2.6197,-2.6242,-2.6256,-2.6311,-2.6347,-2.6401,-2.6451,-2.6499,-2.6567,-2.6624,-2.6675,-2.6734,-2.6762,-2.6772,-2.6776,-2.6773,-2.6781,-2.6746,-2.6732,-2.6768,-2.6768,-2.6768,-2.6768,-2.6768,-2.6768,-2.6066,-2.6127,-2.6154,-2.6236,-2.6275,-2.6335,-2.6366,-2.6408,-2.6448,-2.6523,-2.6571,-2.6604,-2.6654,-2.6717,-2.677,-2.6783,-2.6803,-2.6806,-2.682,-2.6786,-2.6783,-2.678,-2.6767,-2.681,-2.681,-2.6851,-2.6852,-2.6852]},{"header":{"parameterUnit":"m.s-1","parameterCategory":1,"la1":30.2991,"la2":30.254,"lo1":-89.0895,"lo2":-89.0444,"dy":0.0017,"dx":0.0017,"nx":28,"ny":28,"refTime":"2025-11-06T09:00:00:Z","depth":0,"parameterNumber":3,"parameterNumberName":"V-component_of_WINDS"},"data":[0,0,0,0,0,0,0,0,0,0,0,0,0,0,0,0,0,0,0,0,0,0,0,0,0,0,0,0,0,0,0,0,0,0,0,0,0,0,0,0,0,0,0,0,0,0,0,0,0,0,0,0,0,0,0,0,0,0,1.4963,1.4962,0,1.4876,1.4875,1.4874,1.4798,1.4797,1.4796,1.4795,1.4708,1.4706,1.4705,0,0,0,0,0,0,0,0,0,0,0,0,0,1.5067,1.5066,1.4963,1.4962,1.4961,1.4877,1.4875,1.4874,1.4798,1.4797,1.4796,1.4795,1.4708,1.4707,1.4705,0,0,0,0,0,0,0,0,0,0,0,0,0,1.5005,1.5065,1.4964,1.4913,1.4907,1.4877,1.4875,1.4874,1.4798,1.4797,1.4795,1.4794,1.4709,1.4707,1.4705,1.4718,0,0,1.4698,1.4697,0,0,0,0,0,0,0,0,1.5009,1.5002,1.4921,1.4916,1.491,1.4846,1.488,1.4822,1.4798,1.484,1.4795,1.4794,1.4755,1.4749,1.4736,1.4714,1.471,1.4698,1.4696,1.4695,1.4695,0,0,0,0,0,0,0,1.5013,1.5005,1.4929,1.492,1.4914,1.4896,1.4886,1.4868,1.4806,1.4836,1.483,1.4821,1.4752,1.4738,1.4733,1.4709,1.4698,1.4696,1.4694,1.4693,1.4696,1.4697,0,0,0,0,0,0,1.5025,1.5009,1.4932,1.4926,1.4957,1.4895,1.4883,1.4868,1.4806,1.4795,1.4822,1.4818,1.4743,1.4736,1.473,1.4743,1.4695,1.4693,1.4692,1.4695,1.4696,1.4698,0,0,0,0,0,0,1.5028,1.5019,1.4935,1.4966,1.4954,1.4895,1.4878,1.4867,1.4853,1.4795,1.4784,1.4819,1.4741,1.4733,1.4722,1.4739,1.4692,1.469,1.4693,1.4695,1.4697,1.4768,0,0,0,0,0,0,1.5031,1.502,1.5023,1.4967,1.4953,1.4928,1.4879,1.4867,1.485,1.4843,1.479,1.478,1.474,1.4726,1.472,1.4735,1.4688,1.4691,1.4694,1.4696,1.4764,1.4772,1.4779,0,0,0,0,0,1.5035,1.5047,1.5024,1.5015,1.4955,1.4929,1.4921,1.4874,1.4851,1.4855,1.4818,1.4782,1.4738,1.4725,1.4718,1.4732,1.469,1.4693,1.4696,1.476,1.4771,1.4779,0,0,0,0,0,0,1.5107,1.5038,1.5012,1.5006,1.4974,1.4916,1.4919,1.4886,1.486,1.4855,1.4798,1.4787,1.4783,1.4756,1.4743,1.4743,1.4709,1.4711,1.476,1.477,1.4777,1.4784,1.4687,0,0,0,0,0,1.5122,1.5105,1.5046,1.5047,1.5032,1.4979,1.4965,1.4932,1.4896,1.4883,1.4845,1.4813,1.4792,1.4779,1.4757,1.476,1.4749,1.4767,1.4775,1.4781,1.4784,1.4786,1.4794,1.4708,1.4708,1.4708,0,0,1.5153,1.5113,1.5106,1.506,1.5031,1.5017,1.4967,1.4953,1.4942,1.488,1.4868,1.484,1.48,1.4797,1.4794,1.4775,1.4805,1.4785,1.4791,1.4789,1.479,1.4798,1.4805,1.471,1.471,1.471,0,0,1.5202,1.517,1.5167,1.514,1.5097,1.5062,1.5062,1.5009,1.4988,1.4975,1.4929,1.4916,1.488,1.4855,1.4838,1.4881,1.4847,1.4875,1.4916,1.4919,1.4926,1.4931,1.4948,1.4955,1.4878,1.4878,1.4878,0,1.5246,1.5221,1.517,1.516,1.5142,1.5086,1.5084,1.506,1.5013,1.5002,1.4982,1.4939,1.4908,1.4899,1.491,1.4897,1.4897,1.4881,1.4928,1.4934,1.4938,1.4954,1.496,1.4882,1.4881,1.4881,1.4881,0,1.5278,1.5262,1.5265,1.5221,1.5203,1.5197,1.5148,1.5136,1.5106,1.5074,1.5062,1.5024,1.4994,1.4989,1.4959,1.4977,1.4967,1.4939,1.4903,1.4951,1.4965,1.4971,1.4887,1.4886,1.4885,1.4884,0,0,1.5368,1.5298,1.53,1.5281,1.5231,1.5218,1.521,1.5181,1.5173,1.5143,1.5137,1.511,1.5084,1.5064,1.5031,1.5033,1.5073,1.5005,1.5003,1.502,1.5093,1.5116,1.5123,1.505,1.5051,1.5052,1.5097,0,1.541,1.5392,1.5348,1.5345,1.533,1.5278,1.5272,1.5242,1.5213,1.5197,1.5165,1.5147,1.5113,1.5102,1.5102,1.5068,1.5087,1.5064,1.5045,1.5045,1.5057,1.513,1.5153,1.5197,1.5102,1.5103,1.5104,0,1.5456,1.5429,1.5425,1.5378,1.537,1.5365,1.5336,1.5322,1.5287,1.5266,1.5246,1.5209,1.5201,1.5168,1.5157,1.5143,1.5133,1.5116,1.5116,1.5113,1.5077,1.513,1.521,1.5217,1.5111,1.5111,1.511,0,1.5524,1.5487,1.548,1.5465,1.541,1.5408,1.5385,1.5349,1.5336,1.5311,1.5302,1.5276,1.5263,1.5245,1.5204,1.5184,1.5198,1.5162,1.5182,1.5183,1.5187,1.5187,1.5268,1.518,1.518,1.5179,1.5179,0,1.5575,1.5575,1.551,1.5506,1.5505,1.5455,1.5456,1.5429,1.5398,1.5389,1.5343,1.5336,1.5281,1.5268,1.5236,1.5233,1.5227,1.5211,1.5202,1.5215,1.5218,1.5208,1.5204,1.5181,1.5181,1.518,1.518,0,1.5651,1.5608,1.5597,1.5546,1.5533,1.5535,1.5492,1.5487,1.5456,1.5445,1.544,1.5391,1.5374,1.5331,1.5303,1.5281,1.5288,1.5271,1.5299,1.5294,1.5317,1.5316,1.5394,1.5403,1.5309,1.531,1.5311,0,1.5687,1.5685,1.5635,1.5625,1.5604,1.5589,1.5575,1.5527,1.5515,1.5478,1.5478,1.5457,1.5438,1.5414,1.5376,1.5355,1.5339,1.5368,1.5335,1.5349,1.5341,1.5342,1.5342,1.5375,1.5376,1.5377,1.5378,0,1.5756,1.5735,1.5716,1.569,1.5674,1.5652,1.5627,1.5622,1.5569,1.5558,1.5539,1.5525,1.5497,1.5478,1.5451,1.5429,1.5396,1.5389,1.5393,1.5406,1.5423,1.5416,1.532,1.5387,1.5386,1.5386,1.5385,1.5385,1.5813,1.581,1.5775,1.5756,1.5732,1.5711,1.5704,1.5673,1.5657,1.5629,1.5603,1.5588,1.5557,1.5518,1.5499,1.5488,1.547,1.5475,1.5477,1.5479,1.5486,1.5425,1.5483,1.5483,1.5482,1.5482,1.5482,0,1.5881,1.5856,1.5839,1.5806,1.5792,1.5761,1.5733,1.5724,1.5711,1.5684,1.5667,1.5648,1.563,1.5592,1.5571,1.557,1.5555,1.5566,1.5566,1.5562,1.5502,1.5501,1.558,1.558,1.558,1.558,1.5579,1.5579,1.5914,1.5909,1.5884,1.5867,1.5843,1.5827,1.5814,1.5795,1.5774,1.5754,1.5739,1.5715,1.5684,1.5661,1.5644,1.5634,1.5629,1.5646,1.5631,1.5575,1.5566,1.5557,1.5557,1.5645,1.5645,1.5693,1.5693,1.5693]}]]